Location: Bieg
(49.3499°N, 10.3835°E)
Time: 21:34:34
(UTC+00:00)

Cosmos 1295 Rocket - Pass Details

Date: 23 May 2024
Orbit: 943 x 993 km, 82.9° (Epoch: 23 June)

Event Time Altitude Azimuth Distance (km) Brightness Sun altitude
Exits shadow 02:32:33 - 190° (S) 3,460 6.9 -7.5°
Reaches altitude 10° 02:34:37 10° 191° (S) 2,676 6.3 -7.2°
Maximum altitude 02:40:45 83° 279° (W) 961 4.5 -6.5°
Drops below altitude 10° 02:46:52 10° 8° (N) 2,675 7.6 -5.7°
Sets 02:49:22 0° 10° (N) 3,623 8.4 -5.4°
